This demonstration page uses our WeatherBlox Daily Observations layout. Learn more.

38.89511, -77.03637

Hourly Observations for June 10, 2018

Temp ( °F °C ) Dew Point ( °F °C ) Humidity (%) Winds ( mph kmh ) Pressure ( in mb ) Visibility ( mi km ) Precip ( " mm )
12:52 am 00:52 Cloudy 72 22.2 68 20 87 87 SW 6 9 30.03 1017 10 16.09344 0 0
1:09 am 01:09 Cloudy 72 22.2 68 20 87 87 WSW 5 7 30.03 1017 10 16.09344 0 0
1:52 am 01:52 Cloudy 71 21.7 67 19.4 87 87 WSW 5 7 30 1016 10 16.09344 0 0
2:52 am 02:52 Partly Cloudy 71 21.7 67 19.4 87 87 N 3 6 29.97 1015 10 16.09344 0 0
3:52 am 03:52 Partly Cloudy 70 21.1 67 19.4 90 90 N 6 9 29.97 1015 10 16.09344 0 0
4:52 am 04:52 Partly Cloudy 70 21.1 67 19.4 90 90 NNE 3 6 29.97 1015 10 16.09344 0 0
5:52 am 05:52 Mostly Cloudy 70 21.1 67 19.4 90 90 NE 3 6 29.97 1015 7 11.265408 0 0
6:29 am 06:29 Mostly Cloudy with Mist and Fog 71 21.7 67 19.4 87 87 Calm 30.03 1017 4 6.437376 0 0
6:31 am 06:31 Mostly Cloudy with Mist and Fog 71 21.7 67 19.4 87 87 ENE 5 7 30.03 1017 4 6.437376 0 0
6:34 am 06:34 Mostly Cloudy with Mist and Fog 71 21.7 67 19.4 87 87 N 3 6 30.03 1017 4 6.437376 0 0
6:52 am 06:52 Cloudy with Mist and Fog 71 21.7 67 19.4 87 87 E 6 9 30 1016 3 4.828032 0 0
7:06 am 07:06 Cloudy with Mist and Fog 71 21.7 68 20 90 90 E 3 6 30.03 1017 4 6.437376 0 0
7:19 am 07:19 Cloudy with Mist and Fog 71 21.7 68 20 90 90 ESE 3 6 30.03 1017 5 8.04672 0 0
7:52 am 07:52 Cloudy 72 22.2 68 20 87 87 ENE 6 9 30 1016 8 12.874752 0 0
7:59 am 07:59 Cloudy 72 22.2 68 20 87 87 E 6 9 30.03 1017 10 16.09344 0 0
8:09 am 08:09 Cloudy 73 22.8 68 20 84 84 E 6 9 30.03 1017 10 16.09344 0 0
8:41 am 08:41 Cloudy 73 22.8 67 19.4 81 81 E 7 11 30.03 1017 10 16.09344 0 0
8:52 am 08:52 Mostly Cloudy 73 22.8 68 20 84 84 E 7 11 30 1016 10 16.09344 0 0
9:00 am 09:00 Mostly Cloudy 73 22.8 68 20 84 84 ESE 8 13 30.03 1017 10 16.09344 0 0
9:52 am 09:52 Mostly Cloudy 75 23.9 68 20 79 79 SE 7 11 30 1016 10 16.09344 0 0
10:42 am 10:42 Cloudy 76 24.4 68 20 77 77 SSE 6 9 30.03 1017 10 16.09344 0 0
10:52 am 10:52 Cloudy 76 24.4 67 19.4 74 74 SE 5 7 30 1016 10 16.09344 0 0
11:05 am 11:05 Cloudy 76 24.4 68 20 77 77 Calm 30.03 1017 10 16.09344 0 0
11:52 am 11:52 Cloudy 77 25 68 20 74 74 SSE 8 13 29.97 1015 10 16.09344 0 0
12:09 pm 12:09 Cloudy 79 26.1 68 20 69 69 ESE 7 11 30 1016 10 16.09344 0 0
12:52 pm 12:52 Cloudy 78 25.6 68 20 71 71 SSE 6 9 29.97 1015 10 16.09344 0 0
1:25 pm 13:25 Cloudy 79 26.1 68 20 69 69 S 7 11 29.97 1015 10 16.09344 0 0
1:52 pm 13:52 Cloudy 79 26.1 68 20 69 69 SSW 5 7 29.94 1014 10 16.09344 0 0
2:26 pm 14:26 Cloudy 79 26.1 68 20 69 69 S 5 7 29.94 1014 10 16.09344 0 0
2:52 pm 14:52 Cloudy 80 26.7 68 20 67 67 Calm 29.91 1013 10 16.09344 0 0
3:38 pm 15:38 Cloudy 80 26.7 69 20.6 69 69 NNE 3 6 29.91 1013 10 16.09344 0 0
3:49 pm 15:49 Cloudy 81 27 70 21 70 70 Calm 29.91 1013 10 16.09344 0 0
3:52 pm 15:52 Cloudy 81 27.2 69 20.6 67 67 Calm 29.88 1012 10 16.09344 0 0
4:09 pm 16:09 Cloudy 80 26.7 69 20.6 69 69 ENE 5 7 29.91 1013 10 16.09344 0 0
4:13 pm 16:13 Cloudy 80 26.7 70 21.1 71 71 ENE 5 7 29.91 1013 10 16.09344 0 0
4:52 pm 16:52 Cloudy 80 26.7 70 21.1 71 71 ENE 7 11 29.88 1012 10 16.09344 0 0
5:27 pm 17:27 Cloudy with Nearby Thunderstorms 78 25.6 70 21.1 76 76 NE 9 15 29.88 1012 10 16.09344 0 0
5:52 pm 17:52 Cloudy with Nearby Thunderstorms 78 25.6 70 21.1 76 76 NE 8 13 29.85 1011 10 16.09344 0 0
5:55 pm 17:55 Cloudy with Thunderstorms 78 25.6 70 21.1 76 76 NE 9 15 29.88 1012 10 16.09344 0 0
6:21 pm 18:21 Cloudy with Thunderstorms 76 24.4 70 21.1 82 82 NE 16 26 29.88 1012 10 16.09344 0 0
6:52 pm 18:52 Cloudy with Thunderstorms 74 23.3 68 20 82 82 NE 17 28 29.85 1011 10 16.09344 0 0
7:10 pm 19:10 Cloudy with Thunderstorms 74 23.3 67 19.4 79 79 ENE 16 26 29.88 1012 10 16.09344 0 0
7:19 pm 19:19 Cloudy with Nearby Thunderstorms 74 23.3 67 19.4 79 79 ENE 16 26 29.88 1012 10 16.09344 0 0
7:23 pm 19:23 Cloudy with Thunderstorms 73 22.8 67 19.4 81 81 ENE 17 28 29.88 1012 10 16.09344 0 0
7:30 pm 19:30 Cloudy with Thunderstorms 73 22.8 66 18.9 79 79 ENE 16 26 29.88 1012 10 16.09344 0 0
7:38 pm 19:38 Mostly Cloudy 73 22.8 66 18.9 79 79 ENE 14 22 29.88 1012 10 16.09344 0 0
7:41 pm 19:41 Mostly Cloudy with Nearby Thunderstorms 73 22.8 66 18.9 79 79 ENE 12 19 29.88 1012 10 16.09344 0 0
7:52 pm 19:52 Cloudy with Nearby Thunderstorms 73 22.8 66 18.9 79 79 NE 15 24 29.88 1012 10 16.09344 0 0
7:54 pm 19:54 Cloudy with Nearby Thunderstorms 72 22.2 66 18.9 82 82 NE 14 22 29.88 1012 10 16.09344 0 0
7:56 pm 19:56 Cloudy 72 22.2 66 18.9 82 82 NE 15 24 29.88 1012 10 16.09344 0 0
8:22 pm 20:22 Cloudy with Nearby Thunderstorms 71 21.7 65 18.3 81 81 NE 14 22 29.91 1013 10 16.09344 0 0
8:49 pm 20:49 Cloudy 70 21 63 17 78 78 ENE 15 24 29.91 1013 10 16.09344 0 0
8:52 pm 20:52 Cloudy 69 20.6 63 17.2 81 81 NE 15 24 29.88 1012 10 16.09344 0 0
9:52 pm 21:52 Cloudy 68 20 63 17.2 84 84 NE 14 22 29.88 1012 10 16.09344 0.001 0.001
10:04 pm 22:04 Cloudy 68 20 63 17.2 84 84 NE 16 26 29.91 1013 10 16.09344 0 0
10:52 pm 22:52 Cloudy 67 19.4 62 16.7 84 84 NE 10 17 29.88 1012 10 16.09344 0 0
11:48 pm 23:48 Cloudy 66 19 63 17 88 88 NE 13 20 29.91 1013 10 16.09344 0 0
11:52 pm 23:52 Cloudy 66 18.9 62 16.7 87 87 NE 13 20 29.91 1013 10 16.09344 0 0

Powered by AerisWeather